Starlink 32905

operational
NORAD ID: 62923 Int'l Des: 2025-027 Owner: SPXS Country: US Constellation: starlink
LEOCIRCULAR

Starlink 32905について

説明を読み込み中...

リアルタイム位置

3D地球を読み込み中...

次回通過

高度履歴

Altitude vs Time

uPlot chart will show altitude changes over time

軌道要素

1 62923U 25027S 26034.51696318 .00029542 00000-0 10790-2 0 9993
2 62923 43.0017 322.0693 0000913 295.8050 64.2708 15.27572485 56314
Epoch: Feb 3, 2026 • Age: 17 hours

現在のステータス

高度 494.5 km
速度 7.62 km/s
衛星直下点 -40.18°S, 39.05°E
打ち上げ日 Feb 8, 2025
運用期間 0.9 years
タイプ internet

技術仕様

分類 Payload
質量 730.00 kg
乾燥質量 700.00 kg
総質量 730.00 kg
長さ 0.30 m
直径 4.10 m
スパン 29.00 m
形状 Box + pan
製造者 SPXS
バスタイプ Starlink V2M
フェーズステータス In Orbit
所有者/国 SPXS/US

大規模コンステレーション

Loading constellations...